This is the latest recevied weather packets stored in our database for station/object KD8FRE. If no packets are shown the sender has not sent any weather packets the latest 10 day(s).
| Time | Temp. | Humidity | Pressure | Rain* | Wind** | Luminosity | Snow |
|---|---|---|---|---|---|---|---|
| 1777724360 | 2.78° C | 69% | 1018.3 hPa | 0 mm | - | 66 W/m² | - |
| 1777724056 | 2.78° C | 71% | 1018.3 hPa | 0 mm | - | 88 W/m² | - |
| 1777723754 | 2.78° C | 71% | 1018.2 hPa | 0 mm | - | 103 W/m² | - |
| 1777723450 | 2.78° C | 71% | 1018.3 hPa | 0 mm | - | 108 W/m² | - |
| 1777723148 | 2.22° C | 72% | 1018.1 hPa | 0 mm | - | 44 W/m² | - |
| 1777722844 | 2.22° C | 72% | 1018.4 hPa | 0 mm | - | 74 W/m² | - |
| 1777722540 | 2.22° C | 72% | 1018.4 hPa | 0 mm | - | 68 W/m² | - |
| 1777722238 | 2.22° C | 72% | 1018.2 hPa | 0 mm | - | 43 W/m² | - |
| 1777721935 | 2.22° C | 72% | 1018.1 hPa | 0 mm | - | 59 W/m² | - |
| 1777721632 | 1.67° C | 73% | 1018.1 hPa | 0 mm | - | 50 W/m² | - |
| 1777721330 | 1.67° C | 74% | 1018.1 hPa | 0 mm | - | 41 W/m² | - |
| 1777721027 | 1.67° C | 74% | 1018.1 hPa | 0 mm | - | 26 W/m² | - |
| 1777720725 | 1.67° C | 74% | 1018 hPa | 0 mm | - | 22 W/m² | - |
| 1777720422 | 1.67° C | 76% | 1017.8 hPa | 0 mm | - | 21 W/m² | - |
| 1777720120 | 1.11° C | 74% | 1017.9 hPa | 0 mm | - | 18 W/m² | - |
| 1777719817 | 1.11° C | 75% | 1018.1 hPa | 0 mm | - | 16 W/m² | - |
| 1777719515 | 1.11° C | 75% | 1017.9 hPa | 0 mm | - | 14 W/m² | - |
| 1777719212 | 1.11° C | 74% | 1017.9 hPa | 0 mm | - | 11 W/m² | - |
| 1777718904 | 1.11° C | 75% | 1017.9 hPa | 0 mm | - | 9 W/m² | - |
| 1777718601 | 1.67° C | 74% | 1017.9 hPa | 0 mm | - | 7 W/m² | - |
| 1777718299 | 1.67° C | 73% | 1017.9 hPa | 0 mm | - | 5 W/m² | - |
| 1777717996 | 1.67° C | 74% | 1017.9 hPa | 0 mm | - | 3 W/m² | - |
| 1777717693 | 1.67° C | 73% | 1017.7 hPa | 0 mm | - | 2 W/m² | - |
| 1777717389 | 1.67° C | 74% | 1017.8 hPa | 0 mm | - | 1 W/m² | - |
| 1777717087 | 1.67° C | 75% | 1017.6 hPa | 0 mm | - | 1 W/m² | - |
* Rain latest hour (hover to see other rain measurements)
** Current wind speed in m/s (hover to see current wind gust speed)